sat.trackr.live / text

‹ back to catalog

ONEWEB-0300

NORAD 49089 · 2021-075Q

PAYLOAD ACTIVE UNKNOWN

§ Identity

Operator
Country
UK
Launch date
2021-08-21
Launch site
TYMSC
Launch vehicle
Mass (kg)
RCS (m²)

Purposes: comms

External: N2YO · Heavens-Above · Gunter

§ Orbital elements

Epoch: 2026-09-13T03:47:52.843200Z

Period
109.72 min
Inclination
87.8996°
Eccentricity
0.0002264
Mean motion
13.12442262 rev/d
Perigee alt
1,212.0 km
Apogee alt
1,215.4 km
Semi-major
7,591.9 km
B*
-7.1363e-4
RAAN
333.1949°
Arg perigee
103.5528°
Mean anomaly
256.5853°
Rev number
24,674

§ Raw data

ONEWEB-03001 49089U 21075Q   26256.15825050 -.00000244  00000+0 -71363-3 0  99962 49089  87.8996 333.1949 0002264 103.5528 256.5853 13.12442262246743

JSON: /api/v1/satellites/49089 · /tle

For live sub-satellite position, see the globe view (requires WebGL).

§ Visibility from observer

Set your observer location to see the next 7 days of passes ≥ 10°. The values pass through the URL so the page stays shareable.

No JS? Fill the form by hand. The geolocation button needs JavaScript.